When you browse on this site, cookies collect data to enhance your experience and personalize the content and advertising you see.
Visit our Privacy Policy to learn more. By continuing to use the site, you agree to this use of cookies and data.
  • In Norway
  • List of Countries
  • For 7 days
  • Water Temperature
  • Satellite Maps
  • Weather Map
  • Weather Widgets
  • user-avatar
    Login

    Hourly Weather Maan

    Today, 22 January, Tuesday

    Time Temperature Precipitation Wind Pressure Humidity
    00:00 +8°C° 0 mm 1 mps 635 mmHg 44%
    01:00 +7°C° 0 mm 1 mps 634 mmHg 46%
    02:00 +7°C° 0 mm 2 mps 634 mmHg 45%
    03:00 +6°C° 0 mm 2 mps 634 mmHg 47%
    04:00 +6°C° 0 mm 2 mps 634 mmHg 50%
    05:00 +6°C° 0 mm 2 mps 634 mmHg 52%
    06:00 +6°C° 0 mm 2 mps 634 mmHg 50%
    07:00 +7°C° 0 mm 2 mps 634 mmHg 48%
    08:00 +9°C° 0 mm 2 mps 635 mmHg 42%
    09:00 +10°C° 0 mm 3 mps 636 mmHg 38%
    10:00 +11°C° 0 mm 4 mps 636 mmHg 35%
    11:00 +12°C° 0 mm 5 mps 636 mmHg 31%
    12:00 +12°C° 0 mm 5 mps 636 mmHg 29%
    13:00 +12°C° 0 mm 5 mps 636 mmHg 26%
    14:00 +13°C° 0 mm 5 mps 636 mmHg 24%
    15:00 +12°C° 0 mm 5 mps 636 mmHg 25%
    16:00 +11°C° 0 mm 4 mps 635 mmHg 26%
    17:00 +10°C° 0 mm 3 mps 635 mmHg 28%
    18:00 +9°C° 0 mm 3 mps 635 mmHg 33%
    19:00 +8°C° 0 mm 2 mps 635 mmHg 38%
    20:00 +6°C° 0 mm 2 mps 634 mmHg 43%
    21:00 +6°C° 0 mm 2 mps 634 mmHg 45%
    22:00 +5°C° 0 mm 2 mps 634 mmHg 48%
    23:00 +5°C° 0 mm 2 mps 634 mmHg 51%

    Tomorrow, 23 January, Wednesday

    Time Temperature Precipitation Wind Pressure Humidity
    00:00 +4°C° 0 mm 2 mps 634 mmHg 52%
    01:00 +5°C° 0 mm 1 mps 634 mmHg 53%
    02:00 +4°C° 0 mm 1 mps 634 mmHg 54%
    03:00 +4°C° 0 mm 1 mps 633 mmHg 55%
    04:00 +3°C° 0 mm 1 mps 633 mmHg 56%
    05:00 +2°C° 0 mm 0 mps 633 mmHg 57%
    06:00 +4°C° 0 mm 1 mps 633 mmHg 50%
    07:00 +5°C° 0 mm 1 mps 634 mmHg 44%
    08:00 +5°C° 0 mm 2 mps 634 mmHg 38%
    09:00 +7°C° 0 mm 2 mps 635 mmHg 33%
    10:00 +8°C° 0 mm 2 mps 635 mmHg 27%
    11:00 +10°C° 0 mm 2 mps 636 mmHg 22%
    12:00 +12°C° 0 mm 2 mps 636 mmHg 20%
    13:00 +13°C° 0 mm 2 mps 635 mmHg 19%
    14:00 +14°C° 0 mm 2 mps 635 mmHg 17%
    15:00 +13°C° 0 mm 2 mps 634 mmHg 18%
    16:00 +12°C° 0 mm 2 mps 634 mmHg 19%
    17:00 +10°C° 0 mm 2 mps 634 mmHg 19%
    18:00 +10°C° 0 mm 2 mps 634 mmHg 21%
    19:00 +10°C° 0 mm 2 mps 634 mmHg 22%
    20:00 +9°C° 0 mm 2 mps 633 mmHg 23%
    21:00 +9°C° 0 mm 2 mps 633 mmHg 24%
    22:00 +8°C° 0 mm 2 mps 633 mmHg 25%
    23:00 +8°C° 0 mm 2 mps 633 mmHg 26%

    Day after tomorrow, 24 January, Thursday

    Time Temperature Precipitation Wind Pressure Humidity
    00:00 +7°C° 0 mm 2 mps 633 mmHg 24%
    01:00 +7°C° 0 mm 2 mps 633 mmHg 22%
    02:00 +7°C° 0 mm 2 mps 632 mmHg 21%
    03:00 +7°C° 0 mm 2 mps 632 mmHg 19%
    04:00 +7°C° 0 mm 2 mps 632 mmHg 17%
    05:00 +7°C° 0 mm 3 mps 632 mmHg 15%
    06:00 +8°C° 0 mm 3 mps 632 mmHg 15%
    07:00 +8°C° 0 mm 3 mps 633 mmHg 14%
    08:00 +9°C° 0 mm 3 mps 633 mmHg 14%
    09:00 +12°C° 0 mm 4 mps 634 mmHg 13%
    10:00 +14°C° 0 mm 5 mps 635 mmHg 12%
    11:00 +16°C° 0 mm 5 mps 635 mmHg 10%
    12:00 +16°C° 0 mm 6 mps 635 mmHg 11%
    13:00 +17°C° 0 mm 6 mps 634 mmHg 11%
    14:00 +17°C° 0 mm 6 mps 634 mmHg 12%
    15:00 +16°C° 0 mm 6 mps 634 mmHg 16%
    16:00 +14°C° 0 mm 5 mps 633 mmHg 21%
    17:00 +13°C° 0 mm 5 mps 633 mmHg 25%
    18:00 +12°C° 0 mm 5 mps 633 mmHg 28%
    19:00 +11°C° 0 mm 4 mps 634 mmHg 31%
    20:00 +10°C° 0 mm 4 mps 634 mmHg 34%
    21:00 +9°C° 0 mm 3 mps 634 mmHg 37%
    22:00 +8°C° 0 mm 3 mps 634 mmHg 41%
    23:00 +7°C° 0 mm 2 mps 634 mmHg 45%

    25 January, Friday

    Time Temperature Precipitation Wind Pressure Humidity
    00:00 +6°C° 0 mm 2 mps 633 mmHg 45%
    01:00 +6°C° 0 mm 2 mps 633 mmHg 45%
    02:00 +6°C° 0 mm 1 mps 633 mmHg 45%
    03:00 +6°C° 0 mm 1 mps 633 mmHg 45%
    04:00 +6°C° 0 mm 1 mps 632 mmHg 46%
    05:00 +5°C° 0 mm 1 mps 632 mmHg 47%
    06:00 +6°C° 0 mm 1 mps 633 mmHg 45%
    07:00 +7°C° 0 mm 2 mps 634 mmHg 44%
    08:00 +8°C° 0 mm 2 mps 634 mmHg 42%
    09:00 +9°C° 0 mm 2 mps 635 mmHg 43%
    10:00 +12°C° 0 mm 2 mps 635 mmHg 44%
    11:00 +13°C° 0 mm 3 mps 636 mmHg 45%
    12:00 +14°C° 0 mm 4 mps 635 mmHg 44%
    13:00 +15°C° 0 mm 6 mps 635 mmHg 43%
    14:00 +16°C° 0 mm 7 mps 635 mmHg 42%
    15:00 +15°C° 0 mm 6 mps 635 mmHg 45%
    16:00 +15°C° 0 mm 5 mps 634 mmHg 48%
    17:00 +14°C° 0 mm 5 mps 634 mmHg 51%
    18:00 +13°C° 0 mm 3 mps 634 mmHg 48%
    19:00 +12°C° 0 mm 2 mps 634 mmHg 46%
    20:00 +11°C° 0 mm 1 mps 634 mmHg 44%
    21:00 +11°C° 0 mm 1 mps 634 mmHg 44%
    22:00 +10°C° 0 mm 1 mps 633 mmHg 44%
    23:00 +10°C° 0 mm 1 mps 633 mmHg 45%

    26 January, Saturday

    Time Temperature Precipitation Wind Pressure Humidity
    00:00 +9°C° 0 mm 1 mps 633 mmHg 48%
    01:00 +9°C° 0 mm 1 mps 633 mmHg 52%
    02:00 +9°C° 0 mm 1 mps 632 mmHg 55%
    03:00 +9°C° 0 mm 1 mps 632 mmHg 58%
    04:00 +8°C° 0 mm 1 mps 632 mmHg 61%
    05:00 +8°C° 0 mm 1 mps 632 mmHg 64%
    06:00 +9°C° 0 mm 1 mps 632 mmHg 65%
    07:00 +10°C° 0 mm 1 mps 633 mmHg 66%
    08:00 +11°C° 0 mm 1 mps 633 mmHg 67%
    09:00 +12°C° 0 mm 2 mps 634 mmHg 64%
    10:00 +13°C° 0 mm 4 mps 634 mmHg 60%
    11:00 +15°C° 0 mm 5 mps 635 mmHg 56%
    12:00 +15°C° 0 mm 5 mps 634 mmHg 53%
    13:00 +16°C° 0 mm 6 mps 634 mmHg 51%
    14:00 +16°C° 0 mm 7 mps 634 mmHg 48%
    15:00 +16°C° 0 mm 7 mps 634 mmHg 42%
    16:00 +15°C° 0 mm 6 mps 633 mmHg 36%
    17:00 +14°C° 0 mm 5 mps 633 mmHg 29%
    18:00 +13°C° 0 mm 4 mps 633 mmHg 25%
    19:00 +11°C° 0 mm 4 mps 633 mmHg 21%
    20:00 +10°C° 0 mm 3 mps 633 mmHg 18%
    21:00 +10°C° 0 mm 3 mps 633 mmHg 19%
    22:00 +9°C° 0 mm 3 mps 633 mmHg 20%
    23:00 +9°C° 0 mm 3 mps 633 mmHg 21%

    27 January, Sunday

    Time Temperature Precipitation Wind Pressure Humidity
    00:00 +8°C° 0 mm 3 mps 633 mmHg 22%
    01:00 +8°C° 0 mm 2 mps 632 mmHg 23%
    02:00 +7°C° 0 mm 2 mps 632 mmHg 24%
    03:00 +6°C° 0 mm 2 mps 632 mmHg 25%
    04:00 +6°C° 0 mm 2 mps 632 mmHg 27%
    05:00 +5°C° 0 mm 2 mps 631 mmHg 28%
    06:00 +6°C° 0 mm 2 mps 632 mmHg 28%
    07:00 +7°C° 0 mm 2 mps 633 mmHg 28%
    08:00 +7°C° 0 mm 2 mps 633 mmHg 27%
    09:00 +9°C° 0 mm 3 mps 634 mmHg 24%
    10:00 +10°C° 0 mm 4 mps 634 mmHg 22%
    11:00 +12°C° 0 mm 5 mps 635 mmHg 19%
    12:00 +12°C° 0 mm 5 mps 634 mmHg 17%
    13:00 +13°C° 0 mm 5 mps 634 mmHg 16%
    14:00 +13°C° 0 mm 6 mps 634 mmHg 14%
    15:00 +11°C° 0 mm 6 mps 634 mmHg 16%
    16:00 +11°C° 0 mm 6 mps 634 mmHg 17%
    17:00 +10°C° 0 mm 6 mps 634 mmHg 19%
    18:00 +9°C° 0 mm 6 mps 634 mmHg 21%
    19:00 +7°C° 0 mm 5 mps 634 mmHg 24%
    20:00 +6°C° 0 mm 4 mps 634 mmHg 26%
    21:00 +6°C° 0 mm 4 mps 634 mmHg 28%
    22:00 +5°C° 0 mm 3 mps 634 mmHg 30%
    23:00 +4°C° 0 mm 3 mps 634 mmHg 32%
    Show more